Flag for Germany Weather past 2 weeks in Sankt Ingbert, Saarland, Germany

Now
32 °F

Light snow. Low clouds.


Feels Like: 32 °F
Forecast: 31 / 35 °F
Wind: 2 mph from Southwest

Location: Saarbruecken / Ensheim

Current Time: Jan 25, 2015 at 6:09:12 PM

Latest Report: Jan 25, 2015 at 5:00 PM


Visibility: 1 mi

Pressure: 30.46 "Hg

Humidity: 98%

Dew point: 31 °F

Location of Sankt IngbertLocation

Historic Weather in Sankt Ingbert — Graph

°F

Sankt Ingbert temperature yesterday

Maximum temperature yesterday: 32 °F (at 12:00 PM)
Minimum temperature yesterday: 26 °F (at 9:00 PM)
Average temperature yesterday: 30 °F

Past Weeks' High & Low Weather Summary

 TemperatureHumidityPressure
High52 °F (Jan 13, 3:00 PM)100% (Jan 16, 8:00 PM)30.50 "Hg (Jan 16, 8:00 PM)
Low24 °F (Jan 25, 4:00 AM)43% (Jan 13, 1:00 PM)29.67 "Hg (Jan 15, 7:00 PM)
Average36 °F88%30.04 "Hg
* Reported Jan 10 5:00 PM — Jan 25 5:00 PM, Sankt Ingbert, Weather by CustomWeather, © 2014

Note: Actual official high and low records may vary slightly from our data, if they occured in-between our weather recording intervals... More about our weather records

Advertising

Sankt Ingbert weather history for previous 24 hours

 ConditionsComfort  
Time TempWeatherWind HumidityBarometerVisibility
5:00 PM
Jan 25
32 °FLight snow. Low clouds.2 mph98%30.46 "Hg1 mi
4:00 PM32 °FLight snow. Low clouds.2 mph98%30.46 "Hg2 mi
3:00 PM32 °FLow clouds.2 mph98%30.46 "Hg2 mi
2:00 PM32 °FFog.1 mph98%30.46 "Hg1 mi
1:00 PM31 °FFog.1 mph98%30.48 "Hg1 mi
12:00 PM30 °FFog.1 mph99%30.50 "Hg2 mi
11:00 AM28 °FFog.1 mph98%30.50 "Hg2 mi
10:00 AM27 °FFog.1 mph98%30.50 "Hg2 mi
9:00 AM26 °FFog.1 mph99%30.49 "Hg1 mi
8:00 AM25 °FFog.1 mph99%30.49 "Hg1 mi
7:00 AM26 °FFog.1 mph98%30.47 "Hg1 mi
6:00 AM24 °FFog.1 mph98%30.45 "Hg0 mi
4:00 AM24 °FFog.2 mph99%30.42 "Hg2 mi
3:00 AM25 °FFog.2 mph98%30.41 "Hg3 mi
2:00 AM25 °FFog.2 mph98%30.40 "Hg3 mi
1:00 AM26 °FFog.3 mph98%30.39 "Hg4 mi
12:00 AM27 °FFog.3 mph100%30.37 "Hg4 mi
11:00 PM
Jan 24
29 °FFog.3 mph100%30.35 "Hg4 mi
10:00 PM27 °FFog.2 mph99%30.33 "Hg4 mi
9:00 PM26 °FPassing clouds.2 mph99%30.31 "Hg4 mi
8:00 PM27 °FFog.2 mph99%30.29 "Hg4 mi
7:00 PM31 °FLow clouds.3 mph99%30.25 "Hg4 mi
6:00 PM31 °FLow clouds.3 mph99%30.22 "Hg2 mi
Weather by CustomWeather, © 2014

See weather overviewHow to use our weather pages